FW1036 Weather Reports


time (UTC)temp
C
wind
direction
speed
KPH
gust
KPH
rain 1hr
cm
rain 24hr
cm
rain mn
cm
humidity
%
barometer
mb
20260906204515 21 15 14.5 24.1 0.00 0.00 0.00 62 1017.9
20260906203014 21 43 16.1 27.4 0.00 0.00 0.00 65 1017.9
20260906201514 22 5 12.9 22.5 0.00 0.00 0.00 64 1017.9
20260906200014 21 24 14.5 27.4 0.00 0.00 0.00 62 1018.1
20260906194513 22 40 19.3 25.7 0.00 0.00 0.00 64 1017.9
20260906193012 21 38 16.1 25.7 0.00 0.00 0.00 62 1018.2
20260906191512 21 11 17.7 25.7 0.00 0.00 0.00 63 1018.1
20260906190012 22 40 17.7 27.4 0.00 0.00 0.00 64 1018.3
20260906184512 21 31 17.7 27.4 0.00 0.00 0.00 64 1018.3
20260906183012 21 12 12.9 25.7 0.00 0.00 0.00 67 1018.3
20260906181516 21 46 16.1 27.4 0.00 0.00 0.00 63 1018.4
20260906180009 21 46 19.3 27.4 0.00 0.00 0.00 67 1018.6
20260906174508 22 19 16.1 22.5 0.00 0.00 0.00 63 1018.8
20260906173007 21 69 16.1 25.7 0.00 0.00 0.00 64 1018.8
20260906171507 22 46 16.1 24.1 0.00 0.00 0.00 63 1018.8
20260906170015 22 38 19.3 25.7 0.00 0.00 0.00 64 1018.9
20260906164506 21 27 17.7 25.7 0.00 0.00 0.00 66 1018.7
20260906163001 21 31 11.3 24.1 0.00 0.00 0.00 66 1018.8
20260906161600 21 32 16.1 29.0 0.00 0.00 0.00 71 1018.9
20260906160108 21 34 17.7 25.7 0.00 0.00 0.00 72 1018.8
20260906154559 20 32 14.5 25.7 0.00 0.00 0.00 71 1018.7
20260906153052 21 5 14.5 25.7 0.00 0.00 0.00 73 1018.6
20260906151550 21 48 16.1 25.7 0.00 0.00 0.00 74 1018.5
20260906150055 21 49 19.3 25.7 0.00 0.00 0.00 74 1018.4
20260906144544 21 54 16.1 29.0 0.00 0.00 0.00 75 1018.3
20260906143044 20 15 12.9 24.1 0.00 0.00 0.00 76 1018.4
20260906141539 20 13 9.7 19.3 0.00 0.00 0.00 78 1018.3
20260906140037 20 29 17.7 24.1 0.00 0.00 0.00 77 1018.1
20260906134543 20 9 11.3 17.7 0.00 0.00 0.00 79 1018.1
20260906133048 19 40 11.3 17.7 0.00 0.00 0.00 82 1018.2
20260906131524 19 30 11.3 16.1 0.00 0.00 0.00 82 1018.1
20260906130020 18 360 6.4 9.7 0.00 0.00 0.00 84 1018.1
20260906124514 18 360 6.4 11.3 0.00 0.00 0.00 86 1018.0
20260906123017 17 27 4.8 8.0 0.00 0.00 0.00 87 1017.8
20260906121508 17 11 4.8 8.0 0.00 0.00 0.00 89 1017.7
20260906120004 16 5 1.6 6.4 0.00 0.00 0.00 90 1017.5
20260906114609 16 360 4.8 8.0 0.00 0.00 0.00 91 1017.3
20260906113056 15 9 4.8 8.0 0.00 0.00 0.00 92 1017.1
20260906111558 15 327 3.2 9.7 0.00 0.00 0.00 92 1017.0
20260906110053 13 11 3.2 6.4 0.00 0.00 0.00 91 1016.9
20260906104604 14 35 0.0 4.8 0.00 0.00 0.00 91 1016.8
20260906103049 14 343 1.6 6.4 0.00 0.00 0.00 91 1016.7
20260906101548 15 5 0.0 9.7 0.00 0.00 0.00 91 1016.7
20260906100046 15 12 4.8 9.7 0.00 0.00 0.00 91 1016.6
20260906094548 15 22 3.2 8.0 0.00 0.00 0.00 91 1016.6
20260906093058 15 21 4.8 9.7 0.00 0.00 0.00 92 1016.5
20260906091545 14 25 1.6 4.8 0.00 0.00 0.00 91 1016.5
20260906090043 15 360 1.6 6.4 0.00 0.00 0.00 91 1016.5
20260906084542 15 337 3.2 8.0 0.00 0.00 0.00 91 1016.5
20260906083044 15 334 0.0 4.8 0.00 0.00 0.00 91 1016.4
20260906081539 15 340 0.0 4.8 0.00 0.00 0.00 92 1016.3
20260906080040 14 329 0.0 3.2 0.00 0.00 0.00 91 1016.4
20260906074536 14 327 0.0 1.6 0.00 0.00 0.00 91 1016.4
20260906073036 15 327 0.0 3.2 0.00 0.00 0.00 91 1016.3
20260906071534 15 344 0.0 3.2 0.00 0.00 0.00 91 1016.2
20260906070032 15 311 1.6 3.2 0.00 0.00 0.00 91 1016.3
20260906064532 16 311 0.0 8.0 0.00 0.00 0.00 91 1016.2
20260906063030 16 9 3.2 8.0 0.00 0.00 0.00 91 1016.0
20260906061529 15 351 3.2 8.0 0.00 0.00 0.00 91 1015.8
20260906060031 15 317 0.0 3.2 0.00 0.00 0.00 90 1015.9
20260906054525 15 334 0.0 3.2 0.00 0.00 0.00 90 1015.8
20260906053024 16 328 1.6 8.0 0.00 0.00 0.00 90 1015.8
20260906051527 16 360 3.2 6.4 0.00 0.00 0.00 90 1015.8
20260906050023 16 10 4.8 8.0 0.00 0.00 0.00 90 1015.6
20260906044521 15 24 3.2 8.0 0.00 0.00 0.00 90 1015.5
20260906043016 15 5 4.8 9.7 0.00 0.00 0.00 89 1015.4
20260906041521 15 5 4.8 8.0 0.00 0.00 0.00 89 1015.4
20260906040012 15 5 3.2 12.9 0.00 0.00 0.00 88 1015.3
20260906034511 16 29 4.8 8.0 0.00 0.00 0.00 88 1015.2
20260906033011 16 360 6.4 9.7 0.00 0.00 0.00 87 1015.2
20260906031510 16 39 4.8 9.7 0.00 0.00 0.00 87 1015.3
20260906030010 16 350 3.2 9.7 0.00 0.00 0.00 86 1015.2
20260906024509 16 20 4.8 12.9 0.00 0.00 0.00 86 1015.1
20260906023018 16 5 6.4 12.9 0.00 0.00 0.00 85 1015.2
20260906021513 16 5 4.8 12.9 0.00 0.00 0.00 85 1015.3
20260906020009 16 360 4.8 9.7 0.00 0.00 0.00 84 1015.1
20260906014507 16 20 3.2 6.4 0.00 0.00 0.00 83 1015.3
20260906013005 16 355 3.2 9.7 0.00 0.00 0.00 83 1015.3
20260906011503 16 5 3.2 6.4 0.00 0.00 0.00 83 1015.1
20260906010002 16 344 3.2 9.7 0.00 0.00 0.00 82 1014.8
20260906004600 16 355 4.8 9.7 0.00 0.00 0.00 81 1014.8
20260906003059 16 15 3.2 14.5 0.00 0.00 0.00 79 1015.2
20260906001559 17 5 4.8 9.7 0.00 0.00 0.00 78 1015.0
20260906000058 17 341 1.6 12.9 0.00 0.00 0.00 76 1015.0
20260905234611 17 360 3.2 16.1 0.00 0.00 0.00 75 1014.9
20260905233056 18 345 4.8 17.7 0.00 0.00 0.00 73 1014.9
20260905231556 18 338 9.7 19.3 0.00 0.00 0.00 70 1014.9
20260905230123 18 12 9.7 22.5 0.00 0.00 0.00 70 1014.8
20260905224554 19 5 11.3 20.9 0.00 0.00 0.00 71 1014.9
20260905223054 20 30 16.1 24.1 0.00 0.00 0.00 70 1014.8
20260905221557 20 41 12.9 22.5 0.00 0.00 0.00 68 1014.7
20260905220053 20 26 11.3 19.3 0.00 0.00 0.00 67 1014.6
20260905214552 20 31 16.1 25.7 0.00 0.00 0.00 66 1014.6
20260905213051 20 38 16.1 25.7 0.00 0.00 0.00 67 1014.5
20260905211556 21 360 14.5 22.5 0.00 0.00 0.00 70 1014.6
20260905210049 21 30 16.1 24.1 0.00 0.00 0.00 69 1014.8
20260905204548 21 36 17.7 24.1 0.00 0.00 0.00 67 1014.7